Regional Weather Roundup
Issued by NWS

Home | Current Version | Previous Version | Text Only | Print | Product List | Glossary Off
Versions: 1 2 3 4 5 6 7 8 9 10 11 12 13 14 15 16 17 18 19 20 21 22 23 24 25 26 27 28 29 30 31 32 33 34 35 36 37 38 39 40 41 42 43 44 45 46 47 48 49 50

017
ASUS44 KJAN 310503
RWRMS

MISSISSIPPI HOURLY WEATHER ROUNDUP
NATIONAL WEATHER SERVICE JACKSON MS
1100 PM CST FRI JAN 30 2015

NOTE: "FAIR: INDICATES FEW OR NO CLOUDS BELOW 12,000 FEET WITH NO
SIGNIFICANT WEATHER AND/OR OBSTRUCTIONS TO VISIBILITY.

MSZ001>002-007>008-010>013-018>021-025>028-034>036-310600-
NORTHWEST MISSISSIPPI

CITY           SKY/WX    TMP DP  RH WIND       PRES   REMARKS
CLARKSDALE     FAIR      32  30  93 N7        30.43S WCI  26
CLEVELAND      FAIR      35  31  85 N6        30.42F WCI  30
GREENWOOD      CLEAR     33  27  78 NE3       30.41S
GREENVILLE     CLEAR     36  27  69 NE7       30.41F WCI  30
GRENADA        FAIR      34  28  80 CALM      30.41F
OLIVE BRANCH   CLEAR     34  27  75 NE3       30.42S
OXFORD         FAIR      30  25  80 NE3       30.42F
TUNICA         CLEAR     32  28  86 N7        30.44S WCI  26
$$

MSZ003>006-009-014>017-022>024-029>033-037>039-310600-
NORTHEAST MISSISSIPPI

CITY           SKY/WX    TMP DP  RH WIND       PRES   REMARKS
COLUMBUS AFB   CLEAR     31  26  80 CALM      30.41F
CORINTH        FAIR      30  27  86 CALM      30.42S
GOLDN TRIANGLE CLEAR     36  25  64 NE3       30.39F
STARKVILLE     FAIR      41  27  56 NE5       30.40F
TUPELO         CLEAR     33  25  72 CALM      30.42F
$$

MSZ040-058-310600-
CENTRAL MISSISSIPPI

CITY           SKY/WX    TMP DP  RH WIND       PRES   REMARKS
JACKSON INTL   MOCLDY    41  30  65 NE5       30.38S
JACKSON HAWKNS PTCLDY    42  31  64 CALM      30.39S
MERIDIAN KEY   MOCLDY    36  29  75 N5        30.39S WCI  32
MERIDIAN NAS   MOCLDY    40  27  59 N6        30.39S
RAYMOND        FAIR      36  32  87 MISG      30.39S
VICKSBURG      CLEAR     40  32  73 N6        30.41R
$$

MSZ059>079-310600-
SOUTH MISSISSIPPI

CITY           SKY/WX    TMP DP  RH WIND       PRES   REMARKS
BROOKHAVEN       N/A     36  32  87 CALM      30.38S
HATTIESBURG    PTCLDY    39  34  82 CALM      30.38S
MCCOMB         CLEAR     45  30  55 N3        30.36S
NATCHEZ        CLEAR     36  30  80 NE3       30.38F
PINE BELT      PTCLDY    39  28  65 NE5       30.37F
$$

MSZ080>082-310600-
COASTAL MISSISSIPPI

CITY           SKY/WX    TMP DP  RH WIND       PRES   REMARKS
BILOXI         PTCLDY    44  35  68 NE6       30.35S
PASCAGOULA     PTCLDY    40  32  73 N3        30.35F
GULFPORT       PTCLDY    46  31  55 NE3       30.35F
$$



USA.gov is the U.S. government's official web portal to all federal, state and local government web resources and services.